Theta_e
321 315 317 318 318 320 318 313 316 317 317 315 316 324 325 332 338 335 340 341 338 337 334 336 338 337 338 336 339 341 341 339 338 331 328 330 330 328 328 325 322 324 323 323 324 331 334 335 335
317 316 316 318 318 317 315 317 317 318 317 318 319 318 321 321 331 341 343 340 341 337 334 335 336 335 337 336 338 341 341 341 337 329 329 328 327 325 326 322 324 323 323 330 330 333 335 336 334
317 318 319 319 321 316 315 314 317 316 318 319 321 332 330 327 340 340 338 341 342 341 338 334 334 332 337 338 339 341 341 339 330 327 327 327 325 324 322 324 325 322 325 332 334 334 336 334 332
318 321 319 320 318 319 316 318 317 318 319 318 325 324 337 342 342 338 340 341 342 341 340 331 333 329 331 339 339 340 334 327 326 326 327 327 324 322 321 325 323 322 328 332 332 335 334 334 330
316 319 321 323 320 318 318 318 317 319 319 319 319 321 332 345 341 340 341 341 342 342 340 332 332 328 326 327 327 326 325 325 326 327 327 326 323 320 323 324 323 321 326 329 331 332 333 332 329
319 318 322 320 318 318 319 319 319 318 318 318 320 321 334 343 342 342 342 342 342 342 340 333 331 328 326 327 326 325 325 325 326 327 326 324 322 320 322 325 324 322 323 327 329 330 330 330 327
317 319 322 320 320 319 318 318 318 319 319 319 322 330 343 345 343 342 342 342 342 342 338 337 333 329 328 328 327 326 325 326 327 327 326 324 322 320 321 323 323 323 324 326 328 328 327 325 323
321 318 321 320 321 320 318 318 319 319 320 320 329 338 344 344 343 342 343 342 341 341 339 336 336 331 331 330 329 328 327 327 327 327 326 324 323 321 320 321 322 324 324 324 326 326 323 320 320
315 323 325 324 320 320 319 319 319 320 321 320 321 340 342 344 344 343 343 342 341 341 340 340 339 335 332 331 331 330 328 327 327 327 327 326 329 325 323 324 322 322 323 323 323 321 319 319 320
321 323 324 322 322 321 319 319 319 320 321 321 321 341 343 343 343 342 341 342 341 340 340 339 338 337 333 333 333 333 332 331 332 330 329 330 330 329 331 323 322 321 321 320 319 319 319 321 322
320 323 322 321 321 321 320 320 320 321 321 321 321 332 343 342 343 342 341 341 341 340 340 340 339 336 336 337 336 336 339 338 335 330 328 328 328 327 328 327 324 323 321 321 320 320 322 321 323
318 318 320 321 321 321 321 320 321 321 322 321 321 322 332 344 344 343 341 340 340 341 340 340 339 337 337 337 337 337 337 338 336 333 329 328 330 329 329 330 325 322 323 321 320 321 321 323 326
318 317 316 316 318 320 321 322 322 322 322 321 320 319 327 336 342 343 342 340 340 341 341 340 340 338 339 339 338 338 338 337 337 333 331 329 330 328 328 327 323 324 321 320 320 321 324 328 331
317 317 317 316 315 316 319 320 321 322 321 321 321 321 321 322 333 341 341 340 340 341 341 340 340 340 339 339 339 338 338 338 337 334 331 329 326 325 327 325 325 322 320 320 320 321 324 329 332
316 318 318 319 318 315 317 319 319 319 320 321 321 321 321 325 334 341 341 340 339 340 341 341 339 340 339 340 340 339 339 338 336 334 333 330 328 325 324 325 326 323 320 320 320 322 325 330 332
314 315 317 314 319 317 317 317 318 319 320 321 321 321 321 321 330 339 341 340 339 339 340 341 342 340 339 340 340 339 339 337 336 335 333 332 329 327 325 325 324 323 321 321 321 323 328 332 336
311 312 312 312 316 316 317 318 316 316 317 320 321 321 321 321 327 335 340 340 339 338 339 340 341 342 341 340 340 339 339 337 337 336 334 332 331 328 327 327 324 323 323 322 322 323 330 334 336
303 308 311 314 315 315 317 318 317 316 316 320 321 321 321 321 324 335 341 341 339 339 339 339 340 340 341 340 339 339 338 337 337 338 335 333 332 329 328 328 326 324 328 330 328 327 326 334 337
310 309 308 310 312 316 315 318 317 316 317 318 318 321 321 321 324 334 341 341 340 339 339 339 339 339 339 339 338 338 337 336 336 339 337 335 332 331 329 330 327 326 330 333 332 330 329 332 336
308 308 307 306 308 312 313 315 315 316 316 317 318 319 321 322 322 329 340 341 341 340 339 339 338 339 338 337 337 337 336 335 336 338 337 337 334 332 330 329 330 330 333 333 333 331 332 335 335
307 306 306 306 306 309 313 316 316 315 316 316 318 319 320 322 322 322 337 342 342 341 339 339 339 339 338 337 337 336 336 336 336 337 337 337 336 334 332 329 330 331 333 335 333 334 334 335 335
308 306 306 305 305 308 314 320 316 314 315 316 317 319 320 321 322 322 325 341 342 342 340 339 339 339 338 337 337 337 337 337 336 337 337 337 336 336 334 332 329 330 331 334 335 334 335 335 336
307 307 308 307 307 306 308 311 311 315 317 316 317 318 319 321 322 322 322 327 341 342 341 339 339 339 339 339 338 337 336 335 335 337 337 337 337 337 335 333 331 331 331 332 334 335 335 335 336
306 308 308 309 310 310 306 308 309 310 314 316 317 317 318 320 321 322 322 321 336 342 342 340 339 339 339 338 337 336 336 335 334 335 336 337 337 337 336 335 333 332 332 332 332 334 336 336 336
307 309 311 310 313 310 305 306 308 310 313 314 316 317 318 319 321 322 321 321 327 340 342 342 340 340 339 338 338 336 336 335 334 334 334 334 335 336 336 335 335 334 333 333 333 333 335 337 336
306 307 310 310 309 307 306 307 309 312 313 314 316 317 318 319 320 321 322 322 322 335 341 341 341 341 340 339 338 338 336 336 335 334 334 334 334 334 334 335 335 335 335 334 334 334 335 335 337
306 308 308 313 312 311 307 307 309 309 313 314 318 319 318 319 320 321 321 322 320 323 337 341 342 341 340 340 339 339 338 337 336 336 336 336 336 336 335 336 335 335 335 335 335 335 335 336 336
307 307 309 313 316 314 310 309 308 315 318 320 320 319 320 319 319 320 321 321 320 319 323 338 341 342 341 340 340 339 339 339 339 338 339 338 338 338 338 337 337 337 337 337 336 336 336 336 335
306 307 308 308 308 312 316 313 315 313 312 322 320 319 320 320 318 318 319 320 319 318 318 323 338 341 342 341 341 341 341 340 340 341 341 340 340 340 339 339 339 338 338 338 338 337 337 336 336
306 306 307 308 307 307 309 310 309 309 309 315 317 318 317 316 319 318 318 318 318 316 316 321 326 336 341 342 341 341 341 341 341 342 342 341 340 340 340 340 339 339 339 339 338 337 337 336 336
Wind_Speed
6 6 2 3 2 1 4 5 3 4 3 3 5 4 7 3 7 3 5 17 38 42 43 41 38 35 35 35 36 37 37 36 34 31 29 27 25 24 23 22 22 22 23 24 25 25 23 20 18
8 4 2 2 3 4 4 3 7 10 1 5 8 4 7 7 5 2 11 14 34 43 43 41 40 37 36 36 36 38 38 36 33 31 28 27 25 24 24 23 23 23 24 24 24 22 20 18 17
7 2 1 2 3 8 3 4 8 4 8 3 3 4 4 3 1 7 6 24 32 37 40 41 42 39 37 38 38 39 37 35 32 31 28 27 25 24 24 24 24 24 24 24 24 21 19 17 15
2 2 2 3 15 6 6 3 2 4 3 2 4 7 3 1 2 9 21 31 34 34 35 43 42 41 38 38 38 37 36 34 32 31 29 27 26 24 24 24 24 24 24 24 22 20 17 15 13
3 1 3 4 13 6 7 10 12 12 9 7 11 6 4 2 2 14 29 35 37 33 34 44 43 41 39 38 36 35 34 33 33 31 29 27 25 24 24 24 24 24 24 23 21 18 16 14 12
2 0 4 11 21 7 6 10 8 13 9 10 5 5 3 4 11 16 27 34 35 33 35 42 43 40 38 36 35 33 33 32 31 30 28 27 25 24 24 24 23 22 22 21 19 16 14 13 11
3 3 11 9 16 12 9 8 8 11 15 9 3 5 1 3 11 19 24 29 32 32 37 38 38 39 38 36 33 32 32 31 30 29 27 25 24 24 23 23 22 22 21 19 17 15 13 12 11
3 3 11 10 16 21 9 10 5 6 6 4 3 3 3 4 16 21 22 27 28 30 35 39 37 38 38 35 32 32 30 30 29 27 26 25 24 23 22 22 21 21 20 19 16 15 13 12 11
3 6 15 21 15 11 3 3 2 0 5 3 2 4 5 18 20 23 24 24 25 26 30 33 36 38 39 38 35 31 30 29 28 26 25 25 22 23 22 20 21 20 19 18 16 14 13 13 12
8 8 20 8 17 14 9 7 6 4 6 10 9 5 9 13 21 25 29 30 32 32 32 33 35 36 37 36 37 34 31 29 26 27 27 24 23 22 19 20 19 19 18 17 15 14 13 13 13
7 22 17 12 9 12 12 15 6 10 13 14 12 3 6 12 16 19 26 34 43 39 33 34 36 38 36 32 34 32 27 26 25 28 28 25 24 22 20 19 18 18 18 16 16 14 12 12 14
14 23 13 16 17 12 12 6 14 14 24 13 12 15 6 13 15 20 23 28 34 38 36 34 34 38 36 32 33 30 29 27 27 27 28 27 24 23 20 18 19 18 17 16 15 14 14 13 13
18 22 16 16 17 15 15 19 19 26 29 18 14 10 10 12 18 22 22 22 26 32 38 38 35 36 35 33 30 29 28 29 26 29 29 27 24 24 23 20 20 18 18 16 15 14 14 13 12
7 15 16 13 17 18 19 20 14 33 22 20 20 22 20 19 20 22 25 28 30 32 35 38 37 35 35 33 32 32 29 28 27 31 32 30 27 26 24 23 20 20 19 17 16 14 14 11 11
11 18 20 23 16 15 9 20 25 42 19 19 16 17 15 15 19 25 32 33 33 34 31 37 40 36 36 33 32 30 29 28 27 30 34 32 30 28 26 24 21 20 20 18 16 15 14 12 10
11 13 12 7 15 12 14 30 28 23 17 25 24 23 22 22 19 29 30 32 31 32 34 32 35 37 37 34 33 30 28 29 28 28 35 35 33 30 28 25 24 22 21 19 17 15 13 13 11
10 16 22 19 8 10 21 29 30 27 19 22 20 21 21 22 19 25 29 31 34 36 33 35 34 37 37 34 32 29 28 30 28 31 37 36 35 33 29 25 24 25 22 21 19 17 14 13 12
13 15 19 21 6 12 20 29 25 22 17 14 15 18 19 19 22 24 30 31 32 34 34 33 33 33 34 30 28 27 27 33 32 35 33 34 37 36 32 26 25 26 22 21 21 18 18 13 12
16 19 26 27 18 17 26 27 25 18 19 21 24 17 16 15 19 23 29 33 32 33 34 36 36 35 35 33 32 31 34 35 34 36 32 37 40 38 36 28 27 27 23 23 24 21 18 15 12
16 20 25 26 18 19 28 31 29 22 19 22 22 22 20 16 18 15 23 31 34 36 39 38 39 37 39 36 35 32 32 32 32 32 32 39 41 41 38 35 30 29 24 23 25 24 17 16 18
15 18 23 26 18 24 22 36 29 26 25 23 21 25 21 19 19 14 17 28 34 35 37 39 41 41 41 37 32 27 26 21 28 31 35 38 41 44 43 42 35 32 29 26 29 28 23 19 17
17 11 19 21 15 15 3 20 20 16 24 23 25 20 23 25 24 21 16 22 30 34 35 39 40 42 40 39 35 36 34 32 35 32 31 33 37 43 41 42 42 38 36 31 32 33 30 21 19
10 8 12 12 16 17 22 16 21 15 20 24 24 27 24 23 24 24 22 24 30 32 35 38 40 40 41 42 40 39 35 31 26 29 29 33 35 39 42 47 46 42 40 38 38 35 32 33 24
15 17 18 15 11 9 24 19 24 18 26 23 25 24 25 24 22 23 24 26 28 31 34 35 38 42 42 44 44 42 41 32 27 29 31 32 33 36 38 42 45 44 40 40 41 38 39 34 29
5 9 4 3 5 12 7 16 27 13 19 25 28 26 21 23 22 21 22 19 26 28 32 34 38 39 42 44 44 44 43 39 36 33 33 31 33 34 41 45 43 43 43 39 37 39 38 38 34
13 9 6 6 6 15 9 14 16 16 24 27 22 25 22 19 21 21 22 19 25 30 32 34 37 39 40 42 46 46 43 39 40 37 35 36 36 41 37 42 41 41 39 38 37 38 38 37 39
3 6 12 7 20 11 9 29 22 23 24 26 26 26 20 23 21 21 22 20 26 30 33 38 37 39 40 45 43 43 42 41 40 40 40 38 39 35 36 39 43 41 41 39 38 38 36 34 38
4 6 5 3 5 5 10 20 12 9 11 14 15 21 23 22 20 18 19 20 26 30 35 36 39 40 45 46 43 44 45 45 45 38 38 41 42 38 37 39 40 40 40 39 39 36 34 35 35
4 4 3 4 5 7 7 2 13 19 24 17 14 14 19 21 13 9 15 14 24 26 27 33 38 40 39 41 44 42 42 43 41 40 42 42 37 36 39 42 40 40 39 39 38 37 35 36 36
1 7 4 4 7 8 7 8 12 18 19 20 17 16 16 15 14 4 6 6 3 5 8 17 29 32 38 42 40 42 41 37 38 41 41 38 40 39 41 37 38 37 39 40 41 39 36 35 35
Wind_Direction
159 151 143 49 243 313 245 232 305 206 214 205 149 170 216 244 176 203 341 163 162 160 164 167 168 170 167 164 164 163 160 157 155 154 153 150 146 145 145 141 137 134 130 127 126 120 115 108 101
145 137 58 103 229 234 241 186 214 228 235 289 262 226 223 241 230 120 124 160 164 160 163 167 169 170 168 163 162 161 160 158 156 155 154 151 150 149 146 142 139 137 134 131 128 124 117 109 102
136 109 192 205 194 227 250 201 235 269 274 286 292 232 188 214 166 172 167 159 161 160 162 167 168 169 168 164 161 161 159 159 157 157 156 154 153 151 147 144 142 140 138 135 131 126 120 113 104
161 104 94 237 232 230 221 100 101 345 329 211 313 285 245 49 211 182 155 156 159 160 164 166 169 169 167 164 162 163 161 159 158 159 157 156 153 152 150 147 146 144 142 140 136 131 125 117 104
66 80 232 242 253 251 237 252 270 285 304 287 319 280 270 80 148 161 156 158 161 162 164 166 170 170 169 167 166 165 163 160 160 160 158 157 154 153 153 152 150 149 147 145 142 137 133 125 111
159 72 223 238 249 247 257 249 256 271 268 289 271 264 267 110 132 159 157 158 160 162 164 167 171 171 171 170 168 166 164 162 161 160 159 158 156 156 156 156 154 153 151 149 147 143 140 134 126
201 198 236 246 261 266 267 230 238 259 271 278 255 266 15 151 149 154 157 156 159 164 163 166 170 173 172 171 169 168 166 164 163 162 161 160 158 159 160 159 157 156 154 154 151 149 146 142 137
181 215 241 235 248 268 256 251 230 201 271 295 203 255 314 160 154 149 155 153 159 165 167 169 171 174 175 172 173 170 169 167 166 166 165 163 162 162 162 161 160 160 158 157 157 156 151 144 138
146 233 242 236 229 245 280 241 167 343 262 315 284 327 334 147 153 148 150 155 164 172 173 172 172 175 177 174 175 174 172 171 169 168 168 166 163 165 165 166 164 162 161 159 160 159 153 148 143
206 233 242 243 237 251 249 253 304 298 280 280 290 65 109 152 165 166 164 169 176 179 180 178 176 177 178 175 175 176 175 172 171 171 172 171 170 169 167 168 168 167 165 163 163 161 156 151 147
208 239 241 244 260 261 259 265 259 268 266 254 269 115 161 179 191 193 181 183 182 179 179 182 179 181 180 178 176 176 175 174 177 178 178 177 174 173 171 170 173 173 172 168 167 166 163 159 152
250 248 249 257 261 270 268 281 261 260 256 259 270 293 221 195 203 210 203 188 185 183 183 182 183 182 182 183 182 180 179 180 179 183 184 181 178 178 178 177 177 178 179 176 173 170 167 160 158
240 259 265 261 256 258 271 259 269 259 260 261 264 253 253 234 219 213 209 203 194 195 185 185 183 185 183 184 183 182 183 183 185 187 188 187 185 184 183 185 183 183 183 181 179 174 171 166 164
309 292 284 275 263 256 254 267 274 258 259 262 256 259 255 249 231 209 204 203 198 197 194 183 185 187 186 185 186 187 185 185 188 193 193 195 194 191 188 189 189 189 188 187 184 181 181 174 172
291 289 281 257 246 249 260 254 242 256 254 268 263 260 251 242 224 209 208 205 201 199 196 189 185 187 190 188 189 189 189 187 191 198 198 199 200 199 195 192 192 192 192 191 189 187 185 182 178
279 282 274 302 225 228 202 257 247 263 242 248 247 249 253 253 231 218 214 206 199 194 198 197 190 188 189 191 190 189 193 191 195 199 202 203 203 203 201 197 197 194 194 194 194 192 188 185 181
246 265 268 288 263 220 215 253 252 260 259 253 241 239 247 249 234 226 214 204 196 196 194 195 195 192 189 190 190 191 193 197 198 202 207 204 206 206 205 203 200 197 196 197 198 198 193 193 192
269 260 270 272 314 281 245 247 256 262 261 259 260 244 243 244 239 220 207 203 198 195 193 195 195 194 190 189 190 195 197 204 204 207 208 206 207 208 208 208 205 201 197 198 201 200 203 199 200
269 271 275 276 282 271 271 272 272 275 265 253 255 251 247 249 242 226 204 198 194 190 190 192 193 193 187 189 189 193 199 202 206 210 209 209 210 209 209 208 208 205 201 198 201 199 199 200 196
261 264 268 278 282 261 275 273 273 276 274 263 258 251 248 253 246 233 209 197 193 191 191 191 194 193 192 194 198 201 200 207 206 209 210 211 212 211 210 210 208 206 203 203 199 195 188 197 196
263 253 260 266 295 281 284 278 268 262 264 260 257 252 249 246 250 239 219 199 196 197 191 192 192 194 194 195 196 201 200 207 208 210 209 210 212 215 214 214 212 210 207 205 205 202 197 194 201
268 278 266 277 278 262 315 272 276 258 246 243 244 249 241 241 248 253 234 215 202 203 197 195 195 195 194 192 194 196 196 200 207 208 205 207 212 215 216 217 217 216 213 210 211 210 206 198 200
256 301 284 280 272 274 260 270 271 261 251 238 239 230 240 237 237 244 238 229 214 205 199 199 196 196 193 195 197 198 206 211 208 204 202 206 212 215 217 219 219 219 218 216 217 214 210 210 205
281 281 284 267 264 258 243 238 269 245 248 257 256 242 234 234 233 238 241 232 218 205 201 197 198 199 196 195 199 202 207 206 205 200 201 203 208 213 215 218 218 218 219 217 218 218 218 210 209
234 277 277 241 213 252 257 230 243 276 258 247 247 244 241 230 230 232 234 227 223 206 199 198 198 203 198 198 202 206 209 205 206 203 201 202 205 209 214 214 215 216 218 218 216 218 217 213 208
302 266 266 277 244 278 254 249 245 235 238 254 268 249 248 235 228 228 227 220 218 213 201 199 200 202 200 200 205 208 210 209 209 208 207 207 208 213 212 213 215 216 217 217 216 219 219 214 215
346 290 287 271 253 276 264 269 266 254 261 250 245 250 244 238 232 223 225 222 213 213 205 201 201 201 201 204 206 209 210 210 212 212 210 210 213 215 211 211 212 214 215 216 214 216 217 214 215
230 321 322 264 284 211 247 263 267 235 333 331 293 265 251 249 239 227 223 222 221 212 209 203 203 200 202 204 205 209 211 212 214 212 212 213 215 210 209 210 212 210 213 214 211 214 214 214 216
302 315 307 271 289 330 323 270 31 12 348 339 338 321 285 246 232 240 236 229 220 216 208 204 203 204 205 204 206 210 213 214 214 213 216 216 214 211 211 209 210 207 210 212 211 214 212 213 213
61 300 294 304 326 292 264 273 25 0 338 330 353 8 10 346 233 70 32 33 78 186 209 210 210 210 210 208 206 209 214 212 212 216 218 217 215 212 213 210 209 208 208 209 211 212 212 213 213